Home   Weather   Gary   Past weeks
Flag for USA

Past Weather in Gary, Indiana, USA — Yesterday and Last 2 Weeks

Now
56 °F

Sunny.


Feels Like: 56 °F
Forecast: 61 / 47 °F
Wind: 3 mph from Northeast

Location: Lansing Municipal Airport

Current Time: Apr 25, 2019 at 7:06:11 pm

Latest Report: Apr 25, 2019 at 6:15 pm


Visibility: 10 mi

Pressure: 29.68 "Hg

Humidity: 64%

Dew Point: 44 °F

Location of GaryLocation

Past Weather in Gary — Graph

°F

Gary Temperature Yesterday

Maximum temperature yesterday: 64 °F (at 3:35 pm)
Minimum temperature yesterday: 36 °F (at 4:55 am)
Average temperature yesterday: 52 °F

High & Low Weather Summary for the Past Weeks

 TemperatureHumidityPressure
High78 °F (Apr 22, 4:35 pm)100% (Apr 14, 9:35 am)30.13 "Hg (Apr 14, 9:35 am)
Low29 °F (Apr 13, 5:55 am)26% (Apr 20, 5:35 pm)29.53 "Hg (Apr 11, 8:35 pm)
Average51 °F68%29.87 "Hg
* Reported Apr 10 5:15 pm — Apr 25 5:55 pm, Gary. Weather by CustomWeather, © 2019

Note: Actual official high and low records may vary slightly from our data, if they occured in-between our weather recording intervals... More about our weather records

Advertising

Gary Weather History for the Previous 24 Hours

Scroll right to see more
 ConditionsComfort  
Time TempWeatherWind HumidityBarometerVisibility
5:55 pm
Thu, Apr 25
56 °FSunny.3 mph65%29.68 "Hg10 mi
5:35 pm56 °FSunny.8 mph62%29.69 "Hg10 mi
5:15 pm56 °FSunny.7 mph63%29.69 "Hg10 mi
4:55 pm58 °FSunny.8 mph61%29.69 "Hg10 mi
4:35 pm59 °FSunny.No wind60%29.69 "Hg10 mi
4:15 pm60 °FSunny.No wind59%29.70 "Hg10 mi
3:55 pm60 °FSunny.No wind59%29.71 "Hg7 mi
3:35 pm60 °FSunny.9 mph58%29.72 "Hg5 mi
3:15 pm61 °FSunny.No wind57%29.72 "Hg10 mi
2:55 pm61 °FSunny.No wind57%29.73 "Hg10 mi
2:35 pm62 °FSunny.No wind57%29.73 "Hg10 mi
2:15 pm63 °FSunny.No wind56%29.73 "Hg10 mi
1:55 pm64 °FSunny.8 mph57%29.73 "Hg10 mi
1:35 pm64 °FSunny.No wind60%29.74 "Hg10 mi
1:15 pm63 °FScattered clouds.No wind60%29.75 "Hg10 mi
12:55 pm63 °FPartly sunny.No wind59%29.77 "Hg10 mi
12:35 pm62 °FOvercast.No wind59%29.78 "Hg10 mi
12:15 pm63 °FOvercast.No wind58%29.78 "Hg10 mi
11:55 am60 °FOvercast.No wind61%29.77 "Hg10 mi
11:35 am60 °FOvercast.No wind60%29.77 "Hg10 mi
11:15 am59 °FOvercast.No wind61%29.79 "Hg10 mi
10:55 am59 °FOvercast.No wind60%29.80 "Hg10 mi
10:35 am58 °FMostly cloudy.No wind61%29.80 "Hg10 mi
10:15 am58 °FMore clouds than sun.No wind61%29.80 "Hg10 mi
9:55 am57 °FMostly cloudy.No wind65%29.81 "Hg10 mi
9:35 am56 °FOvercast.No wind64%29.81 "Hg10 mi
9:15 am56 °FMostly cloudy.No wind66%29.82 "Hg10 mi
8:55 am55 °FOvercast.No wind67%29.83 "Hg10 mi
8:35 am55 °FOvercast.No wind68%29.83 "Hg10 mi
8:15 am54 °FOvercast.No wind68%29.84 "Hg10 mi
7:55 am53 °FOvercast.No wind74%29.84 "Hg10 mi
7:35 am51 °FPartly sunny.No wind80%29.84 "Hg10 mi
6:55 am48 °FSunny.No wind87%29.83 "Hg10 mi
6:35 am47 °FSunny.No wind85%29.82 "Hg10 mi
6:15 am47 °FSunny.No wind82%29.81 "Hg10 mi
5:55 am48 °FSunny.No wind81%29.82 "Hg10 mi
5:35 am48 °FSunny.No wind80%29.82 "Hg10 mi
5:15 am46 °FSunny.No wind84%29.82 "Hg10 mi
4:55 am49 °FSunny.No wind75%29.82 "Hg10 mi
4:35 am50 °FClear.No wind72%29.82 "Hg10 mi
4:15 am49 °FPassing clouds.No wind74%29.82 "Hg10 mi
3:55 am51 °FPartly cloudy.No wind69%29.82 "Hg10 mi
3:35 am52 °FOvercast.No wind66%29.82 "Hg10 mi
3:15 am54 °FMostly cloudy.No wind62%29.83 "Hg10 mi
2:55 am53 °FMostly cloudy.No wind63%29.83 "Hg10 mi
2:35 am54 °FOvercast.No wind61%29.83 "Hg10 mi
2:15 am54 °FOvercast.No wind58%29.84 "Hg10 mi
1:55 am54 °FOvercast.No wind55%29.84 "Hg10 mi
1:35 am54 °FOvercast.No wind55%29.85 "Hg10 mi
12:55 am55 °FOvercast.No wind53%29.86 "Hg10 mi
12:35 am55 °FOvercast.No wind52%29.86 "Hg10 mi
12:15 am54 °FOvercast.No wind53%29.87 "Hg10 mi
11:55 pm
Wed, Apr 24
55 °FOvercast.3 mph51%29.88 "Hg10 mi
11:35 pm55 °FOvercast.No wind51%29.88 "Hg10 mi
11:15 pm55 °FOvercast.No wind49%29.87 "Hg10 mi
10:55 pm55 °FOvercast.No wind48%29.87 "Hg10 mi
10:35 pm55 °FOvercast.No wind47%29.87 "Hg10 mi
10:15 pm55 °FOvercast.No wind47%29.88 "Hg10 mi
9:55 pm54 °FMostly cloudy.No wind48%29.88 "Hg10 mi
9:35 pm54 °FMostly cloudy.6 mph48%29.88 "Hg10 mi
9:15 pm54 °FOvercast.3 mph49%29.88 "Hg10 mi
8:35 pm57 °FOvercast.6 mph44%29.88 "Hg10 mi
8:15 pm57 °FLight rain. Overcast.No wind43%29.88 "Hg10 mi
7:55 pm58 °FOvercast.No wind45%29.88 "Hg10 mi
7:35 pm58 °FOvercast.No wind51%29.89 "Hg10 mi
7:15 pm58 °FOvercast.No wind51%29.88 "Hg10 mi
Weather by CustomWeather, © 2019

See weather overview